Regional Weather Roundup
Issued by NWS Cleveland, OH

Home | Current Version | Previous Version | Text Only | Print | Product List | Glossary Off
Versions: 1 2 3 4 5 6 7 8 9 10 11 12 13 14 15 16 17 18 19 20 21 22 23 24 25 26 27 28 29 30 31 32 33 34 35 36 37 38 39 40 41 42 43 44 45 46 47 48 49 50

000
ASUS41 KCLE 291402
RWRCLE
OHIO REGIONAL WEATHER ROUNDUP
NATIONAL WEATHER SERVICE CLEVELAND, OH
1000 AM EDT MON AUG 29 2016

NOTE: "FAIR" INDICATES FEW OR NO CLOUDS BELOW 12,000 FEET WITH NO
SIGNIFICANT WEATHER AND/OR OBSTRUCTIONS TO VISIBILITY.

OHZ001>008-015>018-024>027-034-035-043-044-291500-
   NORTHWEST OHIO

CITY           SKY/WX    TMP DP  RH WIND       PRES   REMARKS
DEFIANCE       MOSUNNY   76  71  85 E7        30.27R
FINDLAY        MOSUNNY   78  71  79 E10       30.25S
TOLEDO EXPRESS SUNNY     76  70  82 E12       30.27R
TOLEDO EXEC    PTSUNNY   77  71  82 NE9       30.27S
LIMA           MOSUNNY   76  73  91 E10       30.27R
$$

OHZ009>014-019>023-028>033-038-089-291500-
   NORTHEAST OHIO

CITY           SKY/WX    TMP DP  RH WIND       PRES   REMARKS
CLE-HOPKINS    MOSUNNY   79  61  53 NE10      30.29R
CLE-LAKEFRONT  SUNNY     78  62  57 NE9       30.26R
CUY CO. ARPT   SUNNY     75  64  69 E12       30.28S
LORAIN-ELYRIA  MOSUNNY   76  66  71 E8        30.27S
ASHTABULA      SUNNY     73  63  70 NE5       30.28S
AKRON-CANTON   MOSUNNY   75  64  68 E12       30.27S
WOOSTER        MOSUNNY   73  69  87 E10       30.28S
MANSFIELD      MOSUNNY   76  70  82 NE8       30.28S
YOUNGSTOWN     MOSUNNY   74  61  63 NE8       30.28R
$$

OHZ042-051>053-060>062-070>072-077>081-291500-
  SOUTHWEST OHIO

CITY           SKY/WX    TMP DP  RH WIND       PRES   REMARKS
CINC-COVINGTON MOSUNNY   77  70  79 NE7       30.24R
CINC-LUNKEN    NOT AVBL
HAMILTON       SUNNY     77  70  79 E6        30.25R
DAYTON         MOSUNNY   77  70  79 NE7       30.26S
WRIGHT-PAT AFB SUNNY     76  71  84 NE5       30.24S
DAYTON GENERAL SUNNY     78  68  71 E7        30.24R
WILMINGTON     SUNNY     77  71  82 NE8       30.24S
$$

OHZ036-037-039>041-045>050-054>059-063>069-073>076-082>088-291500-
  CENTRAL AND SOUTHEAST OHIO

CITY           SKY/WX    TMP DP  RH WIND       PRES   REMARKS
COLUMBUS       MOSUNNY   77  70  79 E8        30.24R
OSU AIRPORT    SUNNY     79  71  76 NE9       30.25R
BOLTON FIELD   SUNNY     79  72  78 E8        30.25R
RICKENBACK AFB SUNNY     76  69  78 NE7       30.24R
NEWARK         CLOUDY    78  70  76 E5        30.25R
MARION         MOSUNNY   78  71  79 E9        30.27R
LANCASTER      MOSUNNY   78  68  71 NE8       30.25R
ZANESVILLE     CLOUDY    76  69  79 NE7       30.25R
NEW PHILLY     PTSUNNY   78  69  73 VRB5      30.26S
$$



USA.gov is the U.S. government's official web portal to all federal, state and local government web resources and services.